Regional Weather Roundup
Issued by NWS

Home | Current Version | Previous Version | Graphics & Text | Print | Product List | Glossary On
Versions: 1 2 3 4 5 6 7 8 9 10 11 12 13 14 15 16 17 18 19 20 21 22 23 24 25 26 27 28 29 30 31 32 33 34 35 36 37 38 39 40 41 42 43 44 45 46 47 48 49 50
000
ASUS43 KBIS 280102
RWRND

NORTH DAKOTA REGIONAL WEATHER ROUNDUP
NATIONAL WEATHER SERVICE BISMARCK ND
800 PM CDT FRI MAY 27 2016

NOTE: "FAIR" INDICATES FEW OR NO CLOUDS BELOW 12,000 FEET WITH NO
SIGNIFICANT WEATHER AND/OR OBSTRUCTIONS TO VISIBILITY.


NDZ001>003-009>011-017-280200-
NORTHWEST NORTH DAKOTA

CITY           SKY/WX    TMP DP  RH WIND       PRES   REMARKS
WILLISTON      CLOUDY    62  50  64 N8        29.84R
MINOT          CLOUDY    66  56  70 NE13      29.81S
MINOT AFB      CLOUDY    62  56  83 NE15      29.81R
$$

NDZ018>021-031>035-040>046-280200-
SOUTHWEST NORTH DAKOTA

CITY           SKY/WX    TMP DP  RH WIND       PRES   REMARKS
BISMARCK       MOSUNNY   67  50  54 E3        29.79R
DICKINSON      CLOUDY    64  44  48 E5        29.79S
GARRISON         N/A     67  51  56 NE5       29.80S
HETTINGER ARPT CLOUDY    66  47  50 E5        29.82S
$$

NDZ004>008-012>016-024-026-027-054-280200-
NORTHEAST NORTH DAKOTA

CITY           SKY/WX    TMP DP  RH WIND       PRES   REMARKS
GRAND FORKS    PTSUNNY   73  55  53 NE9       29.76R
GRND FRKS AFB  MOSUNNY   72  51  47 E6        29.77S
DEVILS LAKE    SUNNY     66  56  70 N14       29.80S
$$

NDZ022-023-025-028>030-036>039-047>053-280200-
SOUTHEAST NORTH DAKOTA

CITY           SKY/WX    TMP DP  RH WIND       PRES   REMARKS
FARGO          CLOUDY    64  60  87 CALM      29.76F
JAMESTOWN      CLOUDY    68  51  54 E5        29.77S
$$





USA.gov is the U.S. government's official web portal to all federal, state and local government web resources and services.